Regional Weather Roundup
Issued by NWS

Home | Current Version | Previous Version | Text Only | Print | Product List | Glossary Off
Versions: 1 2 3 4 5 6 7 8 9 10 11 12 13 14 15 16 17 18 19 20 21 22 23 24 25 26 27 28 29 30 31 32 33 34 35 36 37 38 39 40 41 42 43 44 45 46 47 48 49 50

000
ASUS44 KMEG 170410
RWRTN
TENNESSEE HOURLY STATE WEATHER ROUNDUP
NATIONAL WEATHER SERVICE MEMPHIS TN
1100 PM CDT WED AUG 16 2017

TNZ002-004-019-021-049-052-054-088>092-170500-
WEST TENNESSEE

CITY           SKY/WX    TMP DP  RH WIND       PRES   REMARKS
MEMPHIS INTL   CLEAR     81  76  84 S10       29.98R
NWS MEMPHIS      N/A     80 N/A N/A MISG        N/A
JACKSON        CLEAR     78  76  93 S3        29.99S
DYERSBURG      CLEAR     79  76  90 S3        29.98R
COVINGTON      CLEAR     79  75  89 S7        29.97S
UNION CITY     PTCLDY    79  75  89 SE6       29.96S
PARIS          PTCLDY    77  75  94 S5        29.98F
LEXINGTON      CLEAR     77  75  94 CALM      30.00F
SELMER         CLEAR     79  75  89 S6        30.00F
SAVANNAH       CLEAR     79  75  89 S5        29.99F
$$

TNZ008-025-027-028-033-062-065-066-170500-
NORTH MIDDLE TENNESSEE

CITY           SKY/WX    TMP DP  RH WIND       PRES   REMARKS
NASHVILLE      CLOUDY    76  73  91 S6        30.03R
PORTLAND       CLEAR     77  73  88 S6        30.02R
CLARKSVILLE    PTCLDY    77  74  90 CALM      29.99F
SMYRNA         CLOUDY    76  74  93 CALM      30.03S
COOKEVILLE     CLEAR     73  73 100 CALM      30.05S
GALLATIN       CLEAR     79  73  83 CALM      30.05R
CROSSVILLE     CLEAR     73  70  90 VRB3      30.12F
$$

TNZ061-075-076-078-094-096-097-170500-
SOUTH MIDDLE TENNESSEE

CITY           SKY/WX    TMP DP  RH WIND       PRES   REMARKS
FAYETTEVILLE   CLEAR     77  75  94 S3        30.06S
TULLAHOMA      PTCLDY    75  72  88 CALM      30.08S
WINCHESTER     MOCLDY    75  73  94 CALM      30.07S
MCMINNVILLE    CLEAR     75  75 100 CALM      30.07R
COLUMBIA       CLEAR     77  77 100 S7        30.00F
SHELBYVILLE    PTCLDY    75  75 100 CALM      30.05S
$$

TNZ017-018-042-046-047-170500-
NORTHEAST TENNESSEE

CITY           SKY/WX    TMP DP  RH WIND       PRES   REMARKS
TRI CITIES     MOCLDY    70  70 100 CALM      30.11S FOG
ELIZABETHTON   CLOUDY    73  72  94 CALM      30.12F
$$

TNZ012-013-036-069-073-074-170500-
CENTRAL EAST TENNESSEE

CITY           SKY/WX    TMP DP  RH WIND       PRES   REMARKS
KNOXVILLE      PTCLDY    77  70  79 CALM      30.06F
OAK RIDGE      CLEAR     77  72  84 CALM      30.08S
DOWNTOWN KNOXV   N/A     73  73 100 CALM      30.06S
GATLINBURG     CLEAR     73  72  94 CALM      30.07F
MORRISTOWN     CLEAR     75  73  94 CALM      30.08F
$$

TNZ083-085-099-170500-
SOUTHEAST TENNESSEE

CITY           SKY/WX    TMP DP  RH WIND       PRES   REMARKS
CHATTANOOGA    PTCLDY    81  74  79 S3        30.07R
DAYTON         PTCLDY    77  77 100 CALM      30.05F
$$

SKY/WX REPORTED AS FAIR MEANS FEW OR NO CLOUDS BELOW
12 THOUSAND FEET.





USA.gov is the U.S. government's official web portal to all federal, state and local government web resources and services.